DW2513 Weather Reports


Display with metric or nautical units.
time (UTC)temp
F
wind
direction
speed
MPH
gust
MPH
rain 1hr
in
rain 24hr
in
rain mn
in
humidity
%
barometer
mb
20260902025805 63 332 0.0 0.0 0.01 0.27 0.27 90 1015.7
20260902025306 63 332 0.0 0.0 0.01 0.27 0.27 90 1015.7
20260902024805 63 332 0.0 0.0 0.01 0.27 0.27 90 1015.7
20260902023804 63 332 0.0 0.0 0.01 0.27 0.27 90 1015.7
20260902023304 63 332 0.0 0.0 0.01 0.27 0.27 90 1015.7
20260902021805 63 332 0.0 0.0 0.01 0.27 0.27 90 1015.7
20260902021305 63 332 0.0 0.0 0.01 0.27 0.27 90 1015.7
20260902020305 63 332 0.0 0.0 0.00 0.26 0.26 90 1015.7
20260902014304 63 332 0.0 0.0 0.00 0.26 0.26 90 1015.5
20260902013805 63 332 0.0 0.0 0.00 0.26 0.26 90 1015.5
20260902012804 63 332 0.0 0.0 0.00 0.26 0.26 90 1015.5
20260902010804 63 332 0.0 0.0 0.00 0.26 0.26 89 1015.5
20260902005804 63 332 0.0 0.0 0.00 0.26 0.26 89 1015.5
20260902005306 63 332 0.0 0.0 0.00 0.26 0.26 89 1015.5
20260902004805 63 332 0.0 0.0 0.00 0.26 0.26 89 1015.5
20260902003805 63 332 0.0 0.0 0.00 0.26 0.26 89 1015.2
20260902003305 63 332 0.0 0.0 0.00 0.26 0.26 89 1015.2
20260902002307 63 332 0.0 0.0 0.00 0.26 0.26 89 1014.7
20260902000305 63 332 0.0 0.0 0.01 0.26 0.26 89 1014.7
20260901235804 63 332 0.0 0.0 0.01 0.26 0.26 89 1014.7
20260901234805 63 332 0.0 0.0 0.01 0.26 0.26 89 1014.7
20260901233805 64 332 0.0 0.0 0.01 0.26 0.26 89 1014.7
20260901232804 64 332 0.0 0.0 0.01 0.26 0.26 89 1014.7
20260901231805 64 332 0.0 0.0 0.02 0.26 0.26 89 1014.7
20260901230804 64 332 0.0 0.0 0.02 0.26 0.26 89 1014.7
20260901225804 64 332 0.0 0.0 0.01 0.25 0.25 89 1014.7
20260901224305 64 332 0.0 0.0 0.01 0.25 0.25 89 1014.7
20260901223804 64 332 0.0 0.0 0.01 0.25 0.25 89 1014.7
20260901223305 64 332 0.0 0.0 0.01 0.25 0.25 89 1014.7
20260901221805 64 332 0.0 0.0 0.00 0.24 0.24 89 1014.7
20260901220805 64 332 0.0 0.0 0.00 0.24 0.24 89 1014.6
20260901220304 64 332 0.0 0.0 0.00 0.24 0.24 89 1014.6
20260901215805 64 332 0.0 0.0 0.00 0.24 0.24 89 1014.4
20260901215306 64 332 0.0 0.0 0.00 0.24 0.24 89 1014.4
20260901213806 64 332 0.0 0.0 0.00 0.24 0.24 89 1014.2
20260901212306 64 332 0.0 0.0 0.00 0.24 0.24 89 1014.2
20260901210804 64 332 0.0 0.0 0.01 0.24 0.24 89 1014.2
20260901205306 64 332 0.0 0.0 0.01 0.24 0.24 89 1014.0
20260901204305 64 332 0.0 0.0 0.01 0.24 0.24 89 1014.0
20260901202306 63 332 0.0 0.0 0.01 0.24 0.24 89 1014.0
20260901200805 63 332 0.0 0.0 0.00 0.23 0.23 89 1014.0
20260901195805 63 332 0.0 0.0 0.00 0.23 0.23 89 1014.0
20260901195306 63 332 0.0 0.0 0.00 0.23 0.23 89 1014.0
20260901194804 63 332 0.0 0.0 0.00 0.23 0.23 89 1014.0
20260901194305 63 332 0.0 0.0 0.00 0.23 0.23 89 1014.0
20260901191305 63 332 0.0 0.0 0.00 0.23 0.23 88 1014.1
20260901185306 62 332 0.0 0.0 0.00 0.23 0.23 88 1014.3
20260901183304 62 332 0.0 0.0 0.00 0.23 0.23 88 1014.4
20260901182804 62 332 0.0 0.0 0.00 0.23 0.23 88 1014.1
20260901182305 62 332 0.0 0.0 0.00 0.23 0.23 88 1014.1
20260901181304 62 332 0.0 0.0 0.00 0.23 0.23 88 1014.1
20260901180305 62 332 0.0 0.0 0.00 0.23 0.23 88 1014.1
20260901175804 62 332 0.0 0.0 0.00 0.23 0.23 88 1014.1
20260901172305 62 332 0.0 0.0 0.00 0.23 0.23 88 1014.0
20260901171805 62 332 0.0 0.0 0.00 0.23 0.23 88 1014.1
20260901171304 61 332 0.0 0.0 0.00 0.23 0.23 88 1014.1
20260901164804 61 331 0.0 0.0 0.00 0.23 0.23 88 1014.0
20260901164305 61 331 0.0 0.0 0.00 0.23 0.23 88 1013.6
20260901162804 61 331 0.0 0.0 0.00 0.23 0.23 88 1014.4
20260901161804 61 331 0.0 0.0 0.00 0.23 0.23 88 1014.4
20260901161304 61 331 0.0 0.0 0.00 0.23 0.23 88 1014.4
20260901153805 61 323 0.0 0.0 0.00 0.23 0.23 87 1014.0
20260901152306 60 296 0.0 0.0 0.01 0.23 0.23 87 1014.0
20260901151805 60 296 0.0 0.0 0.01 0.23 0.23 87 1014.0
20260901151304 60 296 0.0 0.0 0.01 0.23 0.23 87 1014.0
20260901150805 60 296 0.0 0.0 0.01 0.23 0.23 87 1014.0
20260901144304 60 296 0.0 0.0 0.01 0.23 0.23 87 1014.0
20260901141805 60 296 0.0 0.0 0.00 0.22 0.22 86 1014.1
20260901141304 60 296 0.0 0.0 0.00 0.22 0.22 86 1014.1
20260901135305 60 302 0.0 3.0 0.02 0.22 0.22 86 1014.1
20260901133805 60 321 0.0 0.0 0.04 0.22 0.22 86 1014.1
20260901132307 59 321 0.0 0.0 0.06 0.22 0.22 85 1014.2
20260901130304 59 34 0.0 0.0 0.08 0.21 0.21 85 1014.2
20260901125308 59 34 0.0 0.0 0.09 0.20 0.20 84 1014.2
20260901122805 59 34 0.0 0.0 0.10 0.17 0.17 84 1014.7
20260901121804 59 34 0.0 0.0 0.09 0.15 0.15 83 1014.7
20260901121305 59 34 0.0 0.0 0.10 0.15 0.15 83 1014.7
20260901120805 59 330 0.0 3.0 0.09 0.14 0.14 83 1014.7
20260901120305 59 304 1.0 3.0 0.09 0.13 0.13 83 1014.7
20260901115805 59 325 0.0 0.0 0.08 0.12 0.12 82 1014.6
20260901114805 59 325 0.0 0.0 0.08 0.10 0.10 82 1014.6
20260901112805 60 325 0.0 0.0 0.07 0.07 0.07 81 1014.6
20260901111804 60 325 0.0 0.0 0.06 0.06 0.06 81 1014.6
20260901111304 60 325 0.0 0.0 0.05 0.05 0.05 80 1014.6
20260901110804 60 325 0.0 0.0 0.05 0.05 0.05 79 1014.6
20260901110304 60 325 0.0 0.0 0.04 0.04 0.04 79 1014.4
20260901103305 61 325 0.0 0.0 0.00 0.00 0.00 75 1014.0
20260901102805 61 325 0.0 0.0 0.00 0.00 0.00 75 1014.0
20260901101805 61 323 0.0 0.0 0.00 0.00 0.00 75 1014.0
20260901100805 61 301 0.0 0.0 0.00 0.00 0.00 74 1013.6
20260901100305 61 301 0.0 0.0 0.00 0.00 0.00 74 1013.6
20260901095306 61 301 0.0 0.0 0.00 0.00 0.00 74 1013.6
20260901094304 61 301 0.0 0.0 0.00 0.00 0.00 74 1013.6
20260901092804 61 301 0.0 0.0 0.00 0.00 0.00 74 1013.6
20260901092305 61 301 0.0 0.0 0.00 0.00 0.00 74 1013.6
20260901085804 62 294 0.0 0.0 0.00 0.00 0.00 74 1013.8
20260901085306 62 294 0.0 0.0 0.00 0.00 0.00 74 1013.8
20260901083305 62 294 0.0 0.0 0.00 0.00 0.00 75 1013.6
20260901082804 62 294 0.0 0.0 0.00 0.00 0.00 75 1013.6
20260901081804 62 294 0.0 0.0 0.00 0.00 0.00 75 1013.6
20260901080304 62 293 0.0 0.0 0.00 0.00 0.00 76 1013.7
20260901074304 62 293 0.0 0.0 0.00 0.00 0.00 75 1014.1
20260901073805 62 293 0.0 0.0 0.00 0.00 0.00 75 1014.1
20260901072805 62 293 0.0 0.0 0.00 0.00 0.00 76 1014.1
20260901072309 62 293 0.0 0.0 0.00 0.00 0.00 75 1014.1
20260901070805 62 293 0.0 0.0 0.00 0.00 0.00 76 1014.1
20260901070305 62 293 0.0 0.0 0.00 0.00 0.00 76 1014.1
20260901064804 62 293 0.0 0.0 0.00 0.00 0.00 77 1014.1
20260901063805 62 293 0.0 0.0 0.00 0.00 0.00 77 1014.2
20260901062805 62 293 0.0 0.0 0.00 0.00 0.00 77 1014.2
20260901061304 62 293 0.0 0.0 0.00 0.00 0.00 78 1014.2
20260901055804 62 293 0.0 0.0 0.00 0.00 0.00 77 1014.7
20260901054305 62 293 0.0 0.0 0.00 0.00 0.00 77 1014.7
20260901052307 62 293 0.0 0.0 0.00 0.00 0.00 76 1014.7
20260901045306 63 293 0.0 0.0 0.00 0.00 0.00 76 1014.1
20260901044805 63 293 0.0 0.0 0.00 0.00 0.00 75 1014.1
20260901044304 63 293 0.0 0.0 0.00 0.00 0.00 76 1014.1
20260901043805 63 293 0.0 0.0 0.00 0.00 0.00 75 1014.1
20260901042306 63 293 0.0 0.0 0.00 0.00 0.00 74 1014.1
20260901040305 64 293 0.0 0.0 0.00 0.00 0.00 72 1014.1
20260901035804 64 293 0.0 0.0 0.00 0.00 0.00 72 1014.1
20260901035306 64 293 0.0 0.0 0.00 0.00 0.00 72 1014.1
20260901034305 64 293 0.0 0.0 0.00 0.00 0.00 71 1014.2
20260901033305 65 293 0.0 0.0 0.00 0.00 0.00 72 1014.2
20260901032306 65 293 0.0 0.0 0.00 0.00 0.00 71 1014.2
20260901031305 65 293 0.0 0.0 0.00 0.00 0.00 71 1014.2